Regional Weather Roundup
Issued by NWS Midland/Odessa, TX

Skip options and go directly to product.
Home | Oldest Version | Previous Version | Current Version | All | Text Only | Save Text | Print | Product List | Glossary Off

Skip product version selection by date and time.   

852
ASUS44 KMAF 252010
RWRMAF
MIDLAND AREA WEATHER ROUNDUP
NATIONAL WEATHER SERVICE MIDLAND TX
200 PM CST SAT FEB 25 2017

...IN SOUTHWEST TEXAS AND SOUTHEAST NEW MEXICO...

CITY           SKY/WX    TMP DP  RH WIND       PRES   REMARKS
ALPINE         SUNNY     67   5   8 SW12G20   30.08F
ANDREWS        FAIR      51  23  33 S9G16     30.05F
ARTESIA        SUNNY     52  21  30 SE17G23   30.00F
BIG SPRING     SUNNY     52  24  34 SE7G16    30.10F
CARLSBAD       SUNNY     55  22  27 SE14G22   30.00F
DRYDEN           N/A     64  30  27 SE8       30.04F
FORT STOCKTON  SUNNY     65  24  21 MISG      30.02F
GUAD PASS      SUNNY     60   7  12 W26G32      N/A
HOBBS          SUNNY     50  19  29 SE13G18   30.04F
MARFA          SUNNY     64   5   9 SW17      30.05F
MIDLAND AIRPK  SUNNY     54  25  32 SE13G18   30.07F
MIDLAND INTL   SUNNY     54  25  32 SE12G20   30.06F
ODESSA         SUNNY     53  23  31 S7G16     30.06F
PECOS          SUNNY     58  24  27 E5        30.03F
PRESIDIO       FAIR      71   7   8 SW3       30.03F
SEMINOLE       SUNNY     50  23  34 S10       30.06F
SNYDER         SUNNY     48  21  33 SE13      30.11F
WINK           SUNNY     57  22  25 S13       30.02F
$$
...OTHER STATIONS IN TEXAS...

CITY           SKY/WX    TMP DP  RH WIND       PRES   REMARKS
ABILENE        SUNNY     50  22  33 SE7       30.13F
AMARILLO       SUNNY     47  18  31 S22G29    30.01F WCI  39
AUSTIN         MOSUNNY   60  27  28 N17       30.13F
BROWNSVILLE    PTSUNNY   76  57  51 NE15G24   30.03F
CORPUS CHRISTI SUNNY     68  43  40 E15       30.09F
DALLAS FTW     SUNNY     51  19  28 VRB6      30.18F
DEL RIO        SUNNY     65  29  25 SE14G20   30.07F
EL PASO        MOSUNNY   62   4  10 VRB5G18   30.00F
HOUSTON INT    SUNNY     68  31  25 N8        30.11F
LUBBOCK        SUNNY     49  19  30 S15       30.05F
SAN ANGELO     SUNNY     55  26  32 NE8       30.11F
SAN ANTONIO    MOSUNNY   65  28  24 N5G18     30.11F
WACO           SUNNY     54  27  35 VRB5      30.19F
WICHITA FALLS  NOT AVBL
$$
...OTHER LOCATIONS IN NEW MEXICO...

CITY           SKY/WX    TMP DP  RH WIND       PRES   REMARKS
ALAMAGORDO     SUNNY     59   5  11 SW12G17   30.00F
ALBUQUERQUE    MOSUNNY   46   7  20 VRB6      30.00F
CANNON AFB     SUNNY     49  16  27 SW17      29.98F
CLOVIS         MOSUNNY   48  19  32 SW14G22   29.99F
HOLLOMAN AFB   SUNNY     60   2   9 S12G17    30.03F
ROSWELL        SUNNY     51  19  28 S14       30.02F
RUIDOSO        SUNNY     48  -8   9 W21G26    30.00F
SANTA FE       SUNNY     42   2  18 W12G30    29.96F WCI  36
TRUTH OR CONSE SUNNY     54   4  13 S7G17     29.97F
TUCUMCARI      SUNNY     54   8  16 SW17G28   29.93F
$$

  • National Weather Service
  • Southern Region Headquarters
  • 819 Taylor Street, Room 10A06
  • Fort Worth, TX 76102
  • Page Author: NWS Fort Worth
  • Web Master: SR-SRH.Webmaster@noaa.gov
  •  
  • Page last modified: 30-Sep-2016 6:36 PM UTC
USA.gov is the U.S. government's official web portal to all federal, state and local government web resources and services.